Weather History for Kerrville, TX

Change the Weather History Date:

Monday, February 25, 2013

  Actual Average (KHDO) Record (KHDO)
Temperature  
Mean Temperature 50 °F -  
Max Temperature 60 °F 66 °F 93 °F (2008)
Min Temperature 41 °F 43 °F 36 °F (2004)
Degree Days  
Heating Degree Days 14    
Moisture  
Dew Point 29 °F    
Average Humidity 46    
Maximum Humidity 94    
Minimum Humidity 18    
Precipitation  
Precipitation 0.00 in - - ()
Sea Level Pressure  
Sea Level Pressure 29.75 in    
Wind  
Wind Speed 18 mph (WNW)    
Max Wind Speed 38 mph    
Max Gust Speed 55 mph    
Visibility 10 miles    
Events      
Averages and records for this station are not official NWS values.
T = Trace of Precipitation, MM = Missing Value Source: NWS Daily Summary

Daily Weather History Graph

Daily Weather History Graph

Search for Another Location

Airport:

Trip Planner

Search our weather history database for the weather conditions in past years. The results will help you decide how hot, cold, wet, or windy it might be!

Date:

Astronomy

Feb. 25, 2013 Rise Set
Actual Time 7:06 AM CST 6:32 PM CST
Civil Twilight 6:42 AM CST 6:56 PM CST
Nautical Twilight 6:14 AM CST 7:24 PM CST
Astronomical Twilight 5:46 AM CST 7:52 PM CST
Moon 6:42 PM CST (2/25) 6:40 AM CST (2/25)
Length of Visible Light 12h 14m
Length of Day
11h 26m
Full, 100% of the Moon is Illuminated
Feb 25
Full
Feb 25
Full
Mar 4
Last Quarter
Mar 11
New
Mar 19
First Quarter

Hourly Weather History & Observations

Time (CST) Temp. Windchill Dew Point Humidity Pressure Visibility Wind Dir Wind Speed Gust Speed Precip Events Conditions
12:15 AM 60.8 °F - 55.4 °F 82% 29.60 in 10.0 mi SSE 13.8 mph 19.6 mph N/A   Overcast
12:35 AM 60.8 °F - 57.2 °F 88% 29.59 in 10.0 mi SSE 13.8 mph - N/A   Overcast
12:55 AM 60.8 °F - 57.2 °F 88% 29.59 in 7.0 mi SSE 10.4 mph 17.3 mph N/A   Overcast
1:15 AM 60.8 °F - 57.2 °F 88% 29.59 in 7.0 mi SSE 10.4 mph - N/A   Overcast
1:35 AM 60.8 °F - 59.0 °F 94% 29.59 in 7.0 mi South 11.5 mph 17.3 mph N/A   Overcast
1:55 AM 60.8 °F - 59.0 °F 94% 29.60 in 7.0 mi South 9.2 mph 18.4 mph N/A   Overcast
2:15 AM 60.8 °F - 59.0 °F 94% 29.61 in 7.0 mi South 10.4 mph 18.4 mph N/A   Overcast
2:35 AM 60.8 °F - 57.2 °F 88% 29.64 in 7.0 mi WSW 5.8 mph - N/A   Overcast
2:55 AM 60.8 °F - 57.2 °F 88% 29.61 in 7.0 mi South 9.2 mph - N/A   Mostly Cloudy
3:15 AM 60.8 °F - 59.0 °F 94% 29.63 in 7.0 mi SW 3.5 mph - N/A   Mostly Cloudy
3:35 AM 59.0 °F - 44.6 °F 59% 29.66 in 10.0 mi NW 12.7 mph 23.0 mph N/A   Overcast
3:55 AM 55.4 °F - 33.8 °F 44% 29.67 in 10.0 mi NW 15.0 mph 29.9 mph N/A   Overcast
4:15 AM 55.4 °F - 32.0 °F 41% 29.66 in 10.0 mi WNW 13.8 mph 19.6 mph N/A   Overcast
4:35 AM 55.4 °F - 32.0 °F 41% 29.66 in 10.0 mi NW 15.0 mph 20.7 mph N/A   Mostly Cloudy
4:55 AM 53.6 °F - 32.0 °F 44% 29.66 in 10.0 mi NW 11.5 mph 23.0 mph N/A   Scattered Clouds
5:15 AM 53.6 °F - 32.0 °F 44% 29.67 in 10.0 mi NW 12.7 mph 18.4 mph N/A   Scattered Clouds
5:35 AM 53.6 °F - 32.0 °F 44% 29.67 in 10.0 mi WNW 9.2 mph - N/A   Mostly Cloudy
5:55 AM 53.6 °F - 32.0 °F 44% 29.68 in 10.0 mi WNW 13.8 mph - N/A   Scattered Clouds
6:15 AM 53.6 °F - 30.2 °F 41% 29.68 in 10.0 mi WNW 13.8 mph 17.3 mph N/A   Mostly Cloudy
6:35 AM 53.6 °F - 26.6 °F 35% 29.69 in 10.0 mi WNW 11.5 mph 17.3 mph N/A   Mostly Cloudy
6:55 AM 51.8 °F - 23.0 °F 33% 29.69 in 10.0 mi WNW 13.8 mph 21.9 mph N/A   Scattered Clouds
7:15 AM 50.0 °F - 19.4 °F 30% 29.70 in 10.0 mi WNW 13.8 mph 20.7 mph N/A   Clear
7:35 AM 50.0 °F - 19.4 °F 30% 29.71 in 10.0 mi WNW 15.0 mph 25.3 mph N/A   Clear
7:55 AM 50.0 °F - 21.2 °F 32% 29.71 in 10.0 mi WNW 17.3 mph 21.9 mph N/A   Clear
8:15 AM 50.0 °F - 19.4 °F 30% 29.70 in 10.0 mi NW 20.7 mph 28.8 mph N/A   Clear
8:35 AM 50.0 °F - 17.6 °F 28% 29.70 in 10.0 mi WNW 25.3 mph 33.4 mph N/A   Clear
8:55 AM 51.8 °F - 14.0 °F 22% 29.70 in 10.0 mi WNW 25.3 mph 38.0 mph N/A   Clear
9:15 AM 53.6 °F - 12.2 °F 19% 29.72 in 10.0 mi West 33.4 mph 42.6 mph N/A   Clear
9:35 AM 53.6 °F - 10.4 °F 18% 29.74 in 10.0 mi West 26.5 mph 42.6 mph N/A   Clear
9:55 AM 53.6 °F - 10.4 °F 18% 29.74 in 10.0 mi West 27.6 mph 41.4 mph N/A   Clear
10:15 AM 53.6 °F - 12.2 °F 19% 29.73 in 10.0 mi West 25.3 mph 36.8 mph N/A   Clear
10:35 AM 53.6 °F - 12.2 °F 19% 29.75 in 10.0 mi West 33.4 mph 44.9 mph N/A   Clear
10:55 AM 55.4 °F - 17.6 °F 23% 29.75 in 10.0 mi West 26.5 mph 38.0 mph N/A   Clear
11:15 AM 53.6 °F - 21.2 °F 28% 29.75 in 10.0 mi West 33.4 mph 48.3 mph N/A   Clear
11:35 AM 53.6 °F - 23.0 °F 30% 29.76 in 10.0 mi West 31.1 mph 43.7 mph N/A   Clear
11:55 AM 53.6 °F - 24.8 °F 33% 29.77 in 10.0 mi WNW 32.2 mph 47.2 mph N/A   Scattered Clouds
12:15 PM 53.6 °F - 23.0 °F 30% 29.78 in 10.0 mi West 23.0 mph 48.3 mph N/A   Scattered Clouds
12:35 PM 51.8 °F - 23.0 °F 33% 29.79 in 10.0 mi WNW 29.9 mph 40.3 mph N/A   Mostly Cloudy
12:55 PM 50.0 °F - 23.0 °F 35% 29.78 in 10.0 mi WNW 32.2 mph 39.1 mph N/A   Overcast
1:15 PM 53.6 °F - 23.0 °F 30% 29.78 in 10.0 mi West 29.9 mph 40.3 mph N/A   Scattered Clouds
1:35 PM 53.6 °F - 21.2 °F 28% 29.77 in 10.0 mi West 31.1 mph 43.7 mph N/A   Scattered Clouds
1:55 PM 51.8 °F - 21.2 °F 30% 29.76 in 10.0 mi WNW 33.4 mph 46.0 mph N/A   Scattered Clouds
2:15 PM 50.0 °F - 23.0 °F 35% 29.76 in 10.0 mi West 29.9 mph 47.2 mph N/A   Mostly Cloudy
2:35 PM 51.8 °F - 23.0 °F 33% 29.75 in 10.0 mi West 29.9 mph 47.2 mph N/A   Scattered Clouds
2:55 PM 51.8 °F - 23.0 °F 33% 29.75 in 10.0 mi WNW 34.5 mph 43.7 mph N/A   Scattered Clouds
3:15 PM 51.8 °F - 23.0 °F 33% 29.75 in 10.0 mi West 33.4 mph 55.2 mph N/A   Scattered Clouds
3:35 PM 51.8 °F - 23.0 °F 33% 29.76 in 10.0 mi WNW 29.9 mph 48.3 mph N/A   Scattered Clouds
3:55 PM 50.0 °F - 23.0 °F 35% 29.77 in 10.0 mi WNW 28.8 mph 47.2 mph N/A   Scattered Clouds
4:15 PM 50.0 °F - 24.8 °F 37% 29.77 in 10.0 mi NW 32.2 mph 48.3 mph N/A   Scattered Clouds
4:35 PM 50.0 °F - 26.6 °F 40% 29.78 in 10.0 mi West 38.0 mph 47.2 mph N/A   Clear
4:55 PM 48.2 °F - 26.6 °F 43% 29.79 in 10.0 mi WNW 27.6 mph 44.9 mph N/A   Scattered Clouds
5:15 PM 48.2 °F - 26.6 °F 43% 29.79 in 10.0 mi NW 21.9 mph 43.7 mph N/A   Mostly Cloudy
5:35 PM 48.2 °F - 28.4 °F 46% 29.80 in 10.0 mi WNW 25.3 mph 41.4 mph N/A   Overcast
5:55 PM 46.4 °F 38.5 °F 26.6 °F 46% 29.81 in 10.0 mi WNW 21.9 mph 38.0 mph N/A   Mostly Cloudy
6:15 PM 44.6 °F 34.4 °F 26.6 °F 49% 29.82 in 10.0 mi WNW 32.2 mph 47.2 mph N/A   Mostly Cloudy
6:35 PM 44.6 °F 34.6 °F 26.6 °F 49% 29.82 in 10.0 mi WNW 31.1 mph 40.3 mph N/A   Scattered Clouds
6:55 PM 44.6 °F 36.4 °F 26.6 °F 49% 29.83 in 10.0 mi WNW 20.7 mph 42.6 mph N/A   Clear
7:15 PM 44.6 °F 35.7 °F 26.6 °F 49% 29.84 in 10.0 mi NW 24.2 mph 34.5 mph N/A   Clear
7:35 PM 44.6 °F 35.1 °F 26.6 °F 49% 29.85 in 10.0 mi NW 27.6 mph 40.3 mph N/A   Clear
7:55 PM 42.8 °F 33.8 °F 26.6 °F 53% 29.85 in 10.0 mi NW 21.9 mph 29.9 mph N/A   Clear
8:15 PM 42.8 °F 33.5 °F 26.6 °F 53% 29.87 in 10.0 mi WNW 23.0 mph 33.4 mph N/A   Clear
8:35 PM 42.8 °F 35.4 °F 26.6 °F 53% 29.88 in 10.0 mi WNW 15.0 mph 29.9 mph N/A   Clear
8:55 PM 42.8 °F 34.0 °F 26.6 °F 53% 29.87 in 10.0 mi NW 20.7 mph 35.7 mph N/A   Clear
9:15 PM 42.8 °F 35.1 °F 26.6 °F 53% 29.87 in 10.0 mi NW 16.1 mph 28.8 mph N/A   Clear
9:35 PM 42.8 °F 34.8 °F 26.6 °F 53% 29.86 in 10.0 mi NW 17.3 mph 24.2 mph N/A   Clear
9:55 PM 42.8 °F 34.3 °F 26.6 °F 53% 29.87 in 10.0 mi NW 19.6 mph 25.3 mph N/A   Clear
10:35 PM 42.8 °F 34.3 °F 26.6 °F 53% 29.89 in 10.0 mi WNW 19.6 mph 27.6 mph N/A   Clear
10:55 PM 42.8 °F 35.4 °F 26.6 °F 53% 29.89 in 10.0 mi WNW 15.0 mph 23.0 mph N/A   Clear
11:15 PM 41.0 °F 32.2 °F 26.6 °F 57% 29.89 in 10.0 mi NW 18.4 mph 23.0 mph N/A   Clear
11:35 PM 41.0 °F 33.5 °F 26.6 °F 57% 29.90 in 10.0 mi WNW 13.8 mph 25.3 mph N/A   Clear
11:55 PM 41.0 °F 32.8 °F 26.6 °F 57% 29.90 in 10.0 mi NW 16.1 mph 23.0 mph N/A   Clear